metlocid,date_time,avg_rh,std_rh,min_rh,max_rh,n_rh,n_comments
FRLM,12/7/93,66.09491478,6.518025057,59.02,85.67,59,0
FRLM,12/8/93,72.95173597,3.944564235,65.35,86.11,144,0
FRLM,12/9/93,58.76527802,6.550758581,46.63,70.4,144,0
FRLM,12/10/93,62.04229154,3.5739631,54.05,70.02,144,0
FRLM,12/11/93,62.96305582,8.042268557,45.86,75.45,144,0
FRLM,12/12/93,81.6486108,14.63736851,54.06,99.99,144,12
FRLM,12/13/93,72.00861099,5.07572496,62.74,83.83,144,0
FRLM,12/14/93,68.74527793,5.266977885,59.33,78.52,144,0
FRLM,12/15/93,73.51180543,10.93196397,34.39,82.62,144,0
FRLM,12/16/93,33.15388889,1.746210549,30.4,37.52,144,0
FRLM,12/17/93,40.61770833,10.15384242,24.2,67.72,144,0
FRLM,12/18/93,57.3665971,8.012015626,43,76.68,144,0
FRLM,12/19/93,64.49944427,8.727745347,47.9,84.24,144,0
FRLM,12/20/93,93.44187509,4.945727294,69.3,97.48,144,0
FRLM,12/21/93,98.50423601,1.046276218,96.26,99.99,144,17
FRLM,12/22/93,84.4940273,14.92418686,49.6,99.99,144,20
FRLM,12/23/93,83.32374957,6.829741921,62.12,93.8,144,0
FRLM,12/24/93,71.18736116,8.646460614,57.91,91.52,144,0
FRLM,12/25/93,74.66923608,4.358401594,59.87,83.46,144,0
FRLM,12/26/93,61.72770821,8.904193187,40.39,77.75,144,0
FRLM,12/27/93,68.16506932,8.141491326,47.68,78.04,144,0
FRLM,12/28/93,85.09819423,8.254297688,69.12,98.34,144,0
FRLM,12/29/93,77.95763879,5.133227928,69.05,86.62,144,0
FRLM,12/30/93,53.57875016,6.584061902,32.2,74.08,144,0
FRLM,12/31/93,51.63444429,2.416613523,47.9,57.66,144,0
FRLM,1/1/94,54.32756938,2.866162228,48.3,59.72,144,0
FRLM,1/2/94,51.20833341,6.731571617,36.9,71.8,144,0
FRLM,1/3/94,66.77486096,9.443666169,57.38,92.04,144,0
FRLM,1/4/94,78.22875026,11.83293904,63.2,95.32,144,0
FRLM,1/5/94,84.46333334,6.323855468,66,94.77,144,0
FRLM,1/6/94,92.6732878,3.228223208,88.5,98.29,73,0
FRLM,1/7/94,50.60224112,9.714450358,45.3,88.69,58,0
FRLM,1/8/94,56.76576373,7.109807738,44.6,74.22,144,0
FRLM,1/9/94,52.90749995,6.163862712,41.5,68.68,144,0
FRLM,1/10/94,44.97819436,5.470361121,27.2,54.22,144,0
FRLM,1/11/94,55.1453472,3.815376016,40.1,59.91,144,0
FRLM,1/12/94,41.04170448,3.43845577,31.3,51.32,88,0
FRLM,1/13/94,49.0824995,7.023185611,41.8,60.21,8,0
FRLM,1/14/94,46.01624918,5.231751511,36,53.37,8,0
FRLM,1/15/94,45.33624983,8.500796714,32.8,56.22,8,0
FRLM,1/16/94,83.25374985,9.278662387,63.53,91.55,8,0
FRLM,1/17/94,82.95125008,9.377744544,70.66,96.41,8,0
FRLM,1/18/94,72.65499973,6.967085085,66.98,86.24,8,0
FRLM,1/19/94,68.72749949,13.40994831,54.71,87.75,8,0
FRLM,1/20/94,53.92749977,2.764018055,50.03,58.65,8,0
FRLM,1/21/94,57.82750034,5.7711104,49.87,67.37,8,0
FRLM,1/22/94,53.67625046,2.143374537,50.24,56.2,8,0
FRLM,1/23/94,52.8012495,13.57802762,40.7,83.64,8,0
FRLM,1/24/94,69.19000053,11.23261174,48.8,82.01,8,0
FRLM,1/25/94,66.91874981,5.441553175,58.25,72.85,8,0
FRLM,1/26/94,67.16374874,6.741817824,59.51,77.6,8,0
FRLM,1/27/94,62.25249958,10.97649112,41.73,74.82,8,0
FRLM,1/28/94,64.54374933,7.531757279,57.48,76.32,8,0
FRLM,1/29/94,86.35624981,4.997169225,74.58,90.34,8,0
FRLM,1/30/94,79.62374973,8.679113565,64.94,89.17,8,0
FRLM,1/31/94,67.53999996,8.171235755,60.48,79.37,8,0
FRLM,2/1/94,77.81250095,9.199053703,64.94,89.42,8,0
FRLM,2/2/94,59.04125023,10.43674389,47.41,72.32,8,0
FRLM,2/3/94,86.39249992,8.650135413,69.53,94.52,8,0
FRLM,2/4/94,72.86625051,7.691092745,63.81,83.93,8,0
FRLM,2/5/94,81.59749985,11.50382916,68.03,96.24,8,0
FRLM,2/6/94,97.3324995,1.950155077,93.63,99.99,8,1
FRLM,2/7/94,86.0587492,11.12786186,72.69,99.99,8,2
FRLM,2/8/94,76.96250057,17.99002997,57.15,99.99,8,1
FRLM,2/9/94,65.49374962,16.2031914,49.69,92.17,8,0
FRLM,2/10/94,82.15375042,9.858255826,68.29,93.12,8,0
FRLM,2/11/94,84.05249882,11.8769137,70.06,99.99,8,1
FRLM,2/12/94,87.93125057,9.631704442,73.57,98.86,8,0
FRLM,2/13/94,67.28249931,24.15846928,46.55,98.65,8,0
FRLM,2/14/94,61.67874908,8.303012368,49.82,78.5,8,0
FRLM,2/15/94,79.13749981,14.9578686,61.56,97.96,8,0
FRLM,2/16/94,62.35250044,8.036768919,46.68,71.83,8,0
FRLM,2/17/94,61.24499989,15.13244873,46.15,83.38,8,0
FRLM,2/18/94,70.41125011,13.07817913,56.96,90.86,8,0
FRLM,2/19/94,88.63374901,3.867147564,82.27,94.35,8,0
FRLM,2/20/94,85.23250008,9.953121608,74.66,97.68,8,0
FRLM,2/21/94,88.11625099,9.231547413,73.84,97.17,8,0
FRLM,2/22/94,67.88000011,12.69742858,55.28,96.82,8,0
FRLM,2/23/94,59.93124914,9.408393868,52.26,80.09,8,0
FRLM,2/24/94,78.56124973,12.74080579,61.61,94.43,8,0
FRLM,2/25/94,78.5625,10.74946645,64.76,91.64,8,0
FRLM,2/26/94,76.91625071,10.76760734,62.99,89.92,8,0
FRLM,2/27/94,78.58625031,10.30002996,64.18,90.67,8,0
FRLM,2/28/94,74.23250055,12.52626261,57.61,87.68,8,0
FRLM,3/1/94,75.57875109,10.35137875,63.34,87.4,8,0
FRLM,3/2/94,76.35000038,8.516091144,64,86.08,8,0
FRLM,3/3/94,75.89124966,8.37014695,64.44,84.37,8,0
FRLM,3/4/94,79.71750069,6.124644412,71.27,86.91,8,0
FRLM,3/5/94,80.85875034,4.595953098,72.99,86.07,8,0
FRLM,3/6/94,81.56874943,4.425796205,75.63,86.66,8,0
FRLM,3/7/94,76.95250034,5.500872168,68.15,83.15,8,0
FRLM,3/8/94,78.65000057,6.679105028,67.93,85.33,8,0
FRLM,3/9/94,84.90374947,3.074610275,80.74,89.24,8,0
FRLM,3/10/94,82.00374889,11.44323942,63.54,93.3,8,0
FRLM,3/11/94,92.68375111,2.640768628,88.92,95.2,8,0
FRLM,3/12/94,88.11624908,6.531600643,73.83,95.38,8,0
FRLM,3/13/94,94.14750099,1.173089153,92.92,95.98,8,0
FRLM,3/14/94,91.41875076,1.841089342,87.33,93.58,8,0
FRLM,3/15/94,79.28999901,11.8029602,67.72,93.81,8,0
FRLM,3/16/94,64.29000044,10.83217907,52.43,82.73,8,0
FRLM,3/17/94,80.80375004,5.914593244,71.53,86.23,8,0
FRLM,3/18/94,65.48375082,11.97593341,47.15,85.69,8,0
FRLM,3/19/94,60.11749983,14.08152423,48.32,85.53,8,0
FRLM,3/20/94,84.71875095,1.955319697,81.42,87.22,8,0
FRLM,3/21/94,85.53999901,2.110618439,81.72,87.81,8,0
FRLM,3/22/94,82.9212513,4.014162144,76.44,87.05,8,0
FRLM,3/23/94,79.89874935,4.534809736,71.06,83.75,8,0
FRLM,3/24/94,81.53749943,1.818898805,78.19,83,8,0
FRLM,3/25/94,81.26749992,1.763014456,78.22,83.05,8,0
FRLM,3/26/94,82.40624905,8.297979134,62.46,87.99,8,0
FRLM,3/27/94,73.60999918,15.43896667,50.54,88.47,8,0
FRLM,3/28/94,60.86750031,13.49589343,47.47,77.27,8,0
FRLM,3/29/94,72.88374996,11.13873255,57.64,87.98,8,0
FRLM,3/30/94,86.53624916,2.017530688,82.59,88.76,8,0
FRLM,3/31/94,83.44250011,2.559294555,80.3,86.49,8,0
FRLM,4/1/94,80.60375023,6.839144661,64.44,85.53,8,0
FRLM,4/2/94,61.5600009,18.79897494,39.8,85.9,8,0
FRLM,4/3/94,86.25,1.856016795,83.22,88.44,8,0
FRLM,4/4/94,72.41250157,23.92598059,31.69,87.05,8,0
FRLM,4/5/94,63.24374986,26.91722665,31.44,87.72,8,0
FRLM,4/6/94,81.08125019,6.019708717,71.12,86.82,8,0
FRLM,4/7/94,61.58375025,22.25121352,38.96,84.58,8,0
FRLM,4/8/94,79.37499952,10.98717416,57.37,92.91,8,0
FRLM,4/9/94,97.31875038,0.620469815,95.98,97.81,8,0
FRLM,4/10/94,85.73500061,14.75358171,56.04,97.58,8,0
FRLM,4/11/94,55.10250044,13.64449273,43.13,77.7,8,0
FRLM,4/12/94,83.31750107,1.820846684,81.26,87.12,8,0
FRLM,4/13/94,87.82750034,1.862256161,84.43,89.72,8,0
FRLM,4/14/94,90.42374992,0.545945232,89.52,91.32,8,0
FRLM,4/15/94,90.84374905,1.333727138,89.25,92.69,8,0
FRLM,4/16/94,88.51624966,1.391606584,85.25,89.67,8,0
FRLM,4/17/94,59.0625,22.84140712,39.51,89.4,8,0
FRLM,4/18/94,69.75750017,27.88491363,36.64,96.53,8,0
FRLM,4/19/94,95.77499962,1.788766978,91.49,97.17,8,0
FRLM,4/20/94,92.36375046,5.521184219,81.76,98.35,8,0
FRLM,4/21/94,93.57374859,0.543085629,93.19,94.83,8,0
FRLM,4/22/94,93.32874966,0.231912303,92.94,93.6,8,0
FRLM,4/23/94,92.84875107,0.533677757,92.01,93.35,8,0
FRLM,4/24/94,91.51125145,0.461409959,90.95,92.26,8,0
FRLM,4/25/94,91.62624931,0.655220521,90.7,92.69,8,0
FRLM,4/26/94,86.2387495,9.724158655,64.21,91.18,8,0
FRLM,4/27/94,79.95499897,3.690578097,71.32,82.84,8,0
FRLM,4/28/94,82.35124874,0.970160426,80.8,83.61,8,0
FRLM,4/29/94,85.97624874,3.306400443,78.67,88.45,8,0
FRLM,4/30/94,79.41874981,3.905321253,74.7,84.97,8,0
FRLM,5/1/94,85.32875061,0.872621938,84.17,86.65,8,0
FRLM,5/2/94,78.61124992,12.4503475,52.22,85.31,8,0
FRLM,5/3/94,81.44249916,5.627833197,71.28,86.67,8,0
FRLM,5/4/94,76.40499973,8.665619703,58.22,82.47,8,0
FRLM,5/5/94,85.10875034,1.127873558,83,86.4,8,0
FRLM,5/6/94,62.21499968,15.96847873,40.03,81.16,8,0
FRLM,5/7/94,91.13749886,3.24136454,86.49,95.06,8,0
FRLM,5/8/94,93.00374985,1.933820153,90.56,95.16,8,0
FRLM,5/9/94,90.25625038,0.323195235,89.64,90.57,8,0
FRLM,5/10/94,89.54374886,0.265273567,89.09,90,8,0
FRLM,5/11/94,89.25374985,0.116242269,89.08,89.39,8,0
FRLM,5/12/94,89.5387516,0.473932679,88.9,90.22,8,0
FRLM,5/13/94,86.75750065,1.74713494,84.5,88.9,8,0
FRLM,5/14/94,82.74875069,0.878009035,81.64,84.14,8,0
FRLM,5/15/94,85.95125008,2.287409037,81.92,87.83,8,0
FRLM,5/16/94,88.24875069,0.469296767,87.8,89.09,8,0
FRLM,5/17/94,87.28000069,1.660791112,84.66,89.13,8,0
FRLM,5/18/94,82.68500042,0.746208831,81.9,83.92,8,0
FRLM,5/19/94,82.89500046,2.238750124,80.05,86.58,8,0
FRLM,5/20/94,80.3812499,12.3147525,55.99,89.63,8,0
FRLM,5/21/94,49.76874971,4.5288711,43.16,54.64,8,0
FRLM,5/22/94,65.60375023,12.26466306,49.04,77.96,8,0
FRLM,5/23/94,72.87750053,9.303909388,55.82,83.03,8,0
FRLM,5/24/94,79.00749969,0.923111965,77.52,80.09,8,0
FRLM,5/25/94,76.20125008,0.455707273,75.62,77.03,8,0
FRLM,5/26/94,51.35375023,18.02283026,37.06,77.47,8,0
FRLM,5/27/94,84.95124912,1.440689109,81.77,86.56,8,0
FRLM,5/28/94,71.57625055,15.49906061,47.2,84.31,8,0
FRLM,5/29/94,80.97875118,1.502164627,78.19,83.16,8,0
FRLM,5/30/94,81.50249958,3.094076627,75.85,83.85,8,0
FRLM,5/31/94,84.03000069,0.801890478,82.96,85.47,8,0
FRLM,6/1/94,83.55500031,1.621948933,79.77,84.73,8,0
FRLM,6/2/94,84.34250069,0.980870652,82.69,85.83,8,0
FRLM,6/3/94,80.03375149,2.216038778,77.51,83.33,8,0
FRLM,6/4/94,82.69375038,2.773255207,77.92,85.05,8,0
FRLM,6/5/94,78.94625092,9.068519134,63.97,85.57,8,0
FRLM,6/6/94,55.57625055,16.96787994,36.64,83.95,8,0
FRLM,6/7/94,33.16374969,1.724951308,31.4,36.2,8,0
FRLM,6/8/94,34.82125044,0.812605077,33.65,36.24,8,0
FRLM,6/9/94,35.0762496,1.410755028,33.21,36.83,8,0
FRLM,6/10/94,40.83124971,13.29958908,34.21,73.57,8,0
FRLM,6/11/94,68.32624912,18.20192332,41,87.42,8,0
FRLM,6/12/94,77.10375023,4.501695003,69.54,82.21,8,0
FRLM,6/13/94,83.22499847,1.188589055,82.11,85.27,8,0
FRLM,6/14/94,83.90749836,1.27574799,82.13,85.42,8,0
FRLM,6/15/94,80.82124996,0.622999173,80.11,81.76,8,0
FRLM,6/16/94,83.51999855,3.530896984,79.99,89.85,8,0
FRLM,6/17/94,90.6137495,1.177976347,88.95,92.39,8,0
FRLM,6/18/94,77.37375069,23.54661394,40.24,96.93,8,0
FRLM,6/19/94,93.03625202,2.008011833,90.91,96.51,8,0
FRLM,6/20/94,76.67749882,23.60288124,38.61,90.77,8,0
FRLM,6/21/94,59.19124937,15.4911866,39.62,74.13,8,0
FRLM,6/22/94,76.79875183,1.181190943,74.01,77.58,8,0
FRLM,6/23/94,76.88124847,0.304464737,76.45,77.24,8,0
FRLM,6/24/94,75.78499985,0.294957114,75.38,76.28,8,0
FRLM,6/25/94,66.01874971,11.36772905,47.46,75.48,8,0
FRLM,6/26/94,78.36749935,5.954295696,64.95,82.9,8,0
FRLM,6/27/94,81.92749977,1.285842285,80.75,84.2,8,0
FRLM,6/28/94,86.8012495,2.274765044,81.93,88.94,8,0
FRLM,6/29/94,88.00125027,0.261176187,87.57,88.36,8,0
FRLM,6/30/94,86.53249931,0.497444363,86.07,87.41,8,0
FRLM,7/1/94,75.53749895,18.55278831,39.53,86.46,8,0
FRLM,7/2/94,69.66625023,11.9957255,44.78,79.82,8,0
FRLM,7/3/94,83.1762495,4.595002669,72.79,86.42,8,0
FRLM,7/4/94,75.20124912,14.24287638,45.29,84.43,8,0
FRLM,7/5/94,83.7074995,0.489190887,82.79,84.23,8,0
FRLM,7/6/94,82.08250046,0.334055586,81.57,82.44,8,0
FRLM,7/7/94,82.89375019,0.203675722,82.59,83.31,8,0
FRLM,7/8/94,83.05125046,0.509942911,82.44,83.69,8,0
FRLM,7/9/94,82.56000137,0.201495107,82.25,82.87,8,0
FRLM,7/10/94,81.84124947,2.093904327,78.16,83.78,8,0
FRLM,7/11/94,76.31000042,0.880113842,75.33,77.86,8,0
FRLM,7/12/94,76.6212492,1.23417268,75.31,78.21,8,0
FRLM,7/13/94,78.29500008,1.498903101,77.03,81.24,8,0
FRLM,7/14/94,42.27250004,6.585533381,35.47,51.74,8,0
FRLM,7/15/94,46.18624973,4.769684021,39.98,52.98,8,0
FRLM,7/16/94,75.8812499,21.21295026,50.22,96.74,8,0
FRLM,7/17/94,95.55375004,0.621495403,94.93,96.72,8,0
FRLM,7/18/94,75.87499905,26.10746844,40.64,94.88,8,0
FRLM,7/19/94,71.28250122,9.82666551,49.64,77.66,8,0
FRLM,7/20/94,81.68249989,2.220990344,78.13,84.37,8,0
FRLM,7/21/94,84.24874973,0.311009016,83.73,84.65,8,0
FRLM,7/22/94,81.54625034,1.495450689,80.13,83.73,8,0
FRLM,7/23/94,74.56875134,5.148033333,64.71,78.98,8,0
FRLM,7/24/94,58.99124956,8.81385986,46.62,73.42,8,0
FRLM,7/25/94,77.02750111,2.481979131,71.47,79.04,8,0
FRLM,7/26/94,76.82874966,0.915741426,75.51,78.03,8,0
FRLM,7/27/94,75.24000072,0.446669671,74.66,76.04,8,0
FRLM,7/28/94,52.49125051,18.64288773,25.59,76.02,8,0
FRLM,7/29/94,44.31000018,21.26624042,25.18,79.67,8,0
FRLM,7/30/94,79.62750053,1.341936596,77.43,81.19,8,0
FRLM,7/31/94,80.97749996,0.472916663,80.13,81.59,8,0
FRLM,8/1/94,56.94000006,19.63992823,39.31,80.34,8,0
FRLM,8/2/94,40.7874999,0.835168859,39.56,42.09,8,0
FRLM,8/3/94,71.39124918,15.45313682,38.96,81.57,8,0
FRLM,8/4/94,78.48250008,1.376680703,76.58,80.48,8,0
FRLM,8/5/94,75.38874912,0.588058392,74.54,76.23,8,0
FRLM,8/6/94,73.97249985,0.315990594,73.54,74.48,8,0
FRLM,8/7/94,48.22874975,10.40566626,36.88,68.62,8,0
FRLM,8/8/94,52.88875055,10.82411852,41.37,68.91,8,0
FRLM,8/9/94,76.99249935,4.530363541,71.56,82.51,8,0
FRLM,8/10/94,77.28874969,1.819336887,75.19,80.24,8,0
FRLM,8/11/94,74.84499931,0.087992981,74.73,75,8,0
FRLM,8/12/94,73.94750023,0.424929003,73.3,74.5,8,0
FRLM,8/13/94,74.25374985,0.68891248,73.38,75.4,8,0
FRLM,8/14/94,72.69499969,0.338104072,72.27,73.28,8,0
FRLM,8/15/94,72.26499939,0.282589028,72.08,72.95,8,0
FRLM,8/16/94,73.11125088,0.298062607,72.74,73.5,8,0
FRLM,8/17/94,72.80000019,0.376827838,72.32,73.38,8,0
FRLM,8/18/94,72.12250042,0.092078558,71.97,72.28,8,0
FRLM,8/19/94,72.79125023,0.728902144,71.94,73.68,8,0
FRLM,8/20/94,72.27750015,0.148587662,72.13,72.59,8,0
FRLM,8/21/94,72.09250069,0.201547323,71.87,72.4,8,0
FRLM,8/22/94,73.02000046,0.622392146,72.14,73.65,8,0
FRLM,8/23/94,72.91499901,0.589406926,72.32,74.04,8,0
FRLM,8/24/94,71.93499851,0.132773699,71.77,72.12,8,0
FRLM,8/25/94,58.12500048,13.73765794,40.29,74.56,8,0
FRLM,8/26/94,84.59124947,4.155171439,74.38,87.19,8,0
FRLM,8/27/94,85.85249901,0.257723925,85.59,86.35,8,0
FRLM,8/28/94,57.11500072,14.88577773,43.91,79.72,8,0
FRLM,8/29/94,46.34499884,17.85797561,35.26,81.04,8,0
FRLM,8/30/94,55.33625031,22.46118538,34.65,87.35,8,0
FRLM,8/31/94,82.04875088,16.88041698,42.39,92.51,8,0
FRLM,9/1/94,65.73374939,25.34084451,39.42,92.79,8,0
FRLM,9/2/94,77.94000053,4.874584258,66.72,80.76,8,0
FRLM,9/3/94,81.46875,5.569323334,74.28,87.38,8,0
FRLM,9/4/94,86.66500092,1.063110135,85.57,88.01,8,0
FRLM,9/5/94,85.46625137,0.255227111,85.04,85.71,8,0
FRLM,9/6/94,83.63000107,1.459521716,81.77,85.66,8,0
FRLM,9/7/94,68.15374947,13.71782219,38.66,77.46,8,0
FRLM,9/8/94,71.17249966,16.64050089,30.68,79.28,8,0
FRLM,9/9/94,83.00625038,0.831211118,81.22,83.82,8,0
FRLM,9/10/94,81.48750019,2.606283344,76.81,83.83,8,0
FRLM,9/11/94,83.24499893,1.148104745,80.84,84.24,8,0
FRLM,9/12/94,82.59500027,0.476446078,82.07,83.41,8,0
FRLM,9/13/94,79.60874939,1.216687123,77.6,81.07,8,0
FRLM,9/14/94,78.94624996,0.978875418,76.98,80.15,8,0
FRLM,9/15/94,78.04000187,2.948669753,70.91,79.65,8,0
FRLM,9/16/94,65.27375078,4.695222274,56.56,72.75,8,0
FRLM,9/17/94,72.50249958,2.862156075,67.84,75.53,8,0
FRLM,9/18/94,72.00125027,1.636261168,68.9,74.34,8,0
FRLM,9/19/94,72.50874805,2.040296586,68.63,74.45,8,0
FRLM,9/20/94,72.51999855,1.925371821,68.68,74.14,8,0
FRLM,9/21/94,74.03999996,1.759773321,70.88,75.76,8,0
FRLM,9/22/94,73.88999939,4.075494857,66.14,78.05,8,0
FRLM,9/23/94,73.90250111,4.085778299,66.91,77.95,8,0
FRLM,9/24/94,74.12250042,3.866876061,68.04,78.12,8,0
FRLM,9/25/94,75.54125023,4.429587163,68.44,80.41,8,0
FRLM,9/26/94,79.52124786,3.166784719,74.7,83.77,8,0
FRLM,9/27/94,80.14750004,3.661423129,72.92,83.64,8,0
FRLM,9/28/94,58.07999945,21.34571402,37.95,82.61,8,0
FRLM,9/29/94,61.18000078,9.816403487,47.91,72.55,8,0
FRLM,9/30/94,72.04249954,4.874902711,65.53,77.89,8,0
FRLM,10/1/94,48.71499968,9.983363714,32.83,64.06,8,0
FRLM,10/2/94,52.7275002,22.75402132,30.73,91.16,8,0
FRLM,10/3/94,82.93500137,11.57002826,64.47,93.64,8,0
FRLM,10/4/94,78.32625055,10.44768239,62.24,90.77,8,0
FRLM,10/5/94,57.28250027,25.35567344,30.81,86.85,8,0
FRLM,10/6/94,52.1312499,16.42448533,33.45,83.52,8,0
FRLM,10/7/94,79.51625061,7.918883222,70.86,95.62,8,0
FRLM,10/8/94,70.59250021,14.32546798,37.69,83.54,8,0
FRLM,10/9/94,41.73624897,9.130151185,34.89,58.27,8,0
FRLM,10/10/94,51.07374954,9.372508404,35.64,61.53,8,0
FRLM,10/11/94,69.63625097,4.936638939,63.01,79.69,8,0
FRLM,10/12/94,84.02999973,3.420826539,77.61,88.71,8,0
FRLM,10/13/94,84.24750042,2.712187907,81.11,87.51,8,0
FRLM,10/14/94,77.53875065,9.12010797,65.77,87.33,8,0
FRLM,10/15/94,79.70999908,7.008709636,69.94,87.92,8,0
FRLM,10/16/94,75.69625092,7.944410907,65.66,85.8,8,0
FRLM,10/17/94,77.00374985,5.228078139,68.74,82.73,8,0
FRLM,10/18/94,82.0425005,4.276947003,74.12,87.15,8,0
FRLM,10/19/94,85.8012495,7.22312292,76.24,94.39,8,0
FRLM,10/20/94,50.95875025,18.19869827,35.33,81.08,8,0
FRLM,10/21/94,92.87250042,4.88726674,84.63,96.92,8,0
FRLM,10/22/94,90.42875195,7.087204177,80.87,98.9,8,0
FRLM,10/23/94,91.73375034,2.968064696,87.27,95.15,8,0
FRLM,10/24/94,87.62125015,8.52138744,73.12,96.19,8,0
FRLM,10/25/94,80.20250034,11.62035196,66.09,95.57,8,0
FRLM,10/26/94,78.73500061,8.963724117,68.97,89.71,8,0
FRLM,10/27/94,81.06999969,5.484460224,73.2,87.38,8,0
FRLM,10/28/94,74.7087512,12.39076962,58.99,90.82,8,0
FRLM,10/29/94,72.85250044,15.44275141,49.25,90.94,8,0
FRLM,10/30/94,75.2949996,8.897748539,55.31,82.86,8,0
FRLM,10/31/94,61.42749977,11.98990797,48.32,78.89,8,0
FRLM,11/1/94,67.36500072,8.320825082,60.2,81.61,8,0
FRLM,11/2/94,68.59374952,24.17336047,34.96,95,8,0
FRLM,11/3/94,67.57625008,22.35823382,37,95.74,8,0
FRLM,11/4/94,40.4375,5.803333215,32.9,49.83,8,0
FRLM,11/5/94,47.45125031,19.47225119,31.26,72.6,8,0
FRLM,11/6/94,74.36499977,6.796658536,65.15,86.58,8,0
FRLM,11/7/94,63.21374989,13.39864975,50.64,83.92,8,0
FRLM,11/8/94,43.36124945,7.624564827,34.5,58.74,8,0
FRLM,11/9/94,71.3650012,8.200527606,58.41,81.15,8,0
FRLM,11/10/94,64.94000101,10.9038735,54.69,82.94,8,0
FRLM,11/11/94,62.03374958,5.914398629,56.38,72.56,8,0
FRLM,11/12/94,57.93249941,2.894131181,53.51,61.96,8,0
FRLM,11/13/94,58.36124992,3.678002439,53.35,63.95,8,0
FRLM,11/14/94,67.17625046,8.426055663,57.26,79.3,8,0
FRLM,11/15/94,83.5737505,4.607352418,77.14,88.69,8,0
FRLM,11/16/94,68.80874968,7.055960005,62.12,80.21,8,0
FRLM,11/17/94,62.66125059,4.743282219,56.06,68.98,8,0
FRLM,11/18/94,75.48375034,9.476811559,62.28,85.62,8,0
FRLM,11/19/94,73.71875,8.613705678,63.4,87,8,0
FRLM,11/20/94,63.68875027,4.927981874,56.49,70.61,8,0
FRLM,11/21/94,72.1387496,8.40297284,63.7,86.82,8,0
FRLM,11/22/94,78.91124916,7.832056289,68.88,89.32,8,0
FRLM,11/23/94,71.74624968,7.621614287,60.97,81.15,8,0
FRLM,11/24/94,73.79750013,12.27495883,58.61,84.7,8,0
FRLM,11/25/94,69.54624891,12.31255847,56.12,87.89,8,0
FRLM,11/26/94,77.54500008,6.285636483,66.75,84.93,8,0
FRLM,11/27/94,74.24625015,6.971412218,64.42,87.4,8,0
FRLM,11/28/94,79.54827513,3.306185962,66.59,83.22,29,4
FRLM,11/29/94,72.43458298,5.21843583,61.92,78.6,72,0
FRLM,11/30/94,60.10611105,4.5573659,54.39,75.21,72,0
FRLM,12/1/94,57.23958323,4.285600545,49.32,67.47,72,0
FRLM,12/2/94,58.97236125,2.56219205,55.2,65.51,72,0
FRLM,12/3/94,54.49041674,2.286601769,50.28,59.59,72,0
FRLM,12/4/94,73.97138876,6.789172582,56.83,84.92,72,0
FRLM,12/5/94,62.41736099,9.002396525,47.19,81.8,72,0
FRLM,12/6/94,54.3120833,4.645717687,44.05,62.27,72,0
FRLM,12/7/94,46.8820835,3.157935804,30.63,49.43,72,0
FRLM,12/8/94,48.79680538,2.244390215,41.32,53.4,72,0
FRLM,12/9/94,43.5052779,4.763517679,32.5,54.24,72,0
FRLM,12/10/94,40.46277788,3.167592473,33.4,46.62,72,0
FRLM,12/11/94,42.05638885,3.812004634,32.71,47.57,72,0
FRLM,12/12/94,41.42763874,7.606828574,30.3,59.52,72,0
FRLM,12/13/94,51.43569411,18.86235673,25,82.21,72,0
FRLM,12/14/94,87.0895835,6.2168014,76.18,95.01,72,0
FRLM,12/15/94,82.68833351,4.916792605,72.3,90.55,72,0
FRLM,12/16/94,88.83527788,8.066616833,66.7,97.18,72,0
FRLM,12/17/94,78.24888881,9.656067784,61.55,92.23,72,0
FRLM,12/18/94,85.64319483,4.32388234,80.03,94.05,72,0
FRLM,12/19/94,83.30874983,6.582021498,70.8,94.89,72,0
FRLM,12/20/94,74.19597228,8.92078042,60.55,91.97,72,0
FRLM,12/21/94,77.57263909,12.73911619,55.56,94.36,72,0
FRLM,12/22/94,65.94763856,10.43783077,49.29,87.17,72,0
FRLM,12/23/94,75.23722225,8.532438485,65.9,87.57,72,0
FRLM,12/24/94,68.00749969,6.297678436,57.65,81.73,72,0
FRLM,12/25/94,64.81277794,6.383821218,48.06,78.33,72,0
FRLM,12/26/94,51.5887501,4.127141726,40.16,59.9,72,0
FRLM,12/27/94,42.22263879,8.381744643,27.2,53.68,72,0
FRLM,12/28/94,55.55791654,8.256238449,41.85,81.96,72,0
FRLM,12/29/94,48.80569463,9.353181308,27.5,68.71,72,0
FRLM,12/30/94,51.77583361,9.019656988,40.2,70.26,72,0
FRLM,12/31/94,68.14611085,8.230115068,48.8,78.67,72,0
FRLM,1/1/95,57.87999985,6.754159516,47.6,74.44,72,0
FRLM,1/2/95,67.51916663,15.2955325,50,91.55,72,0
FRLM,1/3/95,90.79569382,2.322769715,87.25,95.36,72,0
FRLM,1/4/95,69.29388915,9.48827338,51.15,86.83,72,0
FRLM,1/5/95,58.66680521,6.227253042,46.52,71.09,72,0
FRLM,1/6/95,80.5066665,10.9625872,49.39,93.92,72,0
FRLM,1/7/95,75.09486114,11.71899405,55.59,91.58,72,0
FRLM,1/8/95,46.12958323,6.922762196,29.6,57.54,72,0
FRLM,1/9/95,54.01736138,11.1182609,38.1,72.7,72,0
FRLM,1/10/95,49.24569458,9.037176257,25.7,67.79,72,0
FRLM,1/11/95,57.7475362,11.24823593,41,76.44,69,0
FRLM,1/12/95,78.50055557,5.521380638,70.61,90.6,72,0
FRLM,1/13/95,78.88541635,5.999935399,67.27,93.7,72,0
FRLM,1/14/95,72.64347214,9.082770373,56.36,87.36,72,0
FRLM,1/15/95,75.08333344,6.690694307,56.4,83.91,72,0
FRLM,1/16/95,61.28763898,10.47521952,48.18,81.58,72,0
FRLM,1/17/95,49.82041682,1.621639255,46.7,53.71,72,0
FRLM,1/18/95,70.07625018,11.05466272,51.16,83.8,72,0
FRLM,1/19/95,79.7409722,7.344382874,56.29,89.12,72,0
FRLM,1/20/95,77.42874961,8.668148532,59.17,93.94,72,0
FRLM,1/21/95,55.5320833,9.832786094,44.2,74.85,72,0
FRLM,1/22/95,51.02819469,5.375311507,44.81,69.06,72,0
FRLM,1/23/95,66.08541679,3.214547432,58.43,73.94,72,0
FRLM,1/24/95,72.00750033,3.260898301,66.3,88.32,72,0
FRLM,1/25/95,70.90791692,17.60654228,43.29,95.48,72,0
FRLM,1/26/95,72.47916661,6.590923175,58.29,81.31,72,0
FRLM,1/27/95,64.53041644,17.36849718,42.25,87.52,72,0
FRLM,1/28/95,71.82847219,11.4813159,50.27,91.04,72,0
FRLM,1/29/95,66.27555572,8.998003264,56.05,84.67,72,0
FRLM,1/30/95,63.92805598,4.459704052,52.9,74.38,72,0
FRLM,1/31/95,65.40597232,5.442392358,54.67,75.14,72,0
FRLM,2/1/95,28.50902775,4.413727632,22.86,53.96,72,0
FRLM,2/2/95,28.44555555,7.073925744,21.59,44.63,72,0
FRLM,2/3/95,61.19347231,9.280074524,30.28,73.07,72,0
FRLM,2/4/95,59.03138892,5.37968063,47.45,72.63,72,0
FRLM,2/5/95,50.04736127,20.9588515,27.73,79.44,72,0
FRLM,2/6/95,32.64819447,6.10871932,27.85,51.25,72,0
FRLM,2/7/95,54.89791658,12.18155068,37.16,76.06,72,0
FRLM,2/8/95,71.83361091,8.012700536,56.18,88.21,72,0
FRLM,2/9/95,61.49861092,10.47869136,33.07,84.96,72,0
FRLM,2/10/95,66.14430581,5.787702072,53.76,85.36,72,0
FRLM,2/11/95,77.84222221,9.881262958,60.79,89.02,72,0
FRLM,2/12/95,68.79499971,13.0514044,45.46,90.05,72,0
FRLM,2/13/95,55.70736096,12.86831186,37.26,80.24,72,0
FRLM,2/14/95,76.63750018,9.63441875,55.41,90.72,72,0
FRLM,2/15/95,75.31888893,11.10860422,53.17,92.69,72,0
FRLM,2/16/95,71.58652814,12.00429643,49.82,90.72,72,0
FRLM,2/17/95,71.41847234,5.172971833,60.3,78.6,72,0
FRLM,2/18/95,67.30166674,14.40851533,44.66,90.39,72,0
FRLM,2/19/95,59.42055559,19.95600171,31.33,90.86,72,0
FRLM,2/20/95,60.35874987,10.40564094,36.07,80.88,72,0
FRLM,2/21/95,45.79777781,8.12529901,33.82,59.98,72,0
FRLM,2/22/95,74.98111089,13.97820974,53.12,92.32,72,0
FRLM,2/23/95,83.38249996,12.70297597,45.67,97.52,72,0
FRLM,2/24/95,94.81861104,2.42466633,83.04,98.58,72,0